Weather History for Mora, MN

Change the Weather History Date:

Wednesday, October 23, 2013

  Actual Average Record
Temperature  
Mean Temperature 32 °F -  
Max Temperature 33 °F 54 °F 79 °F (1963)
Min Temperature 30 °F 29 °F 5 °F (1936)
Degree Days  
Heating Degree Days 34    
Moisture  
Dew Point 27 °F    
Average Humidity 82    
Maximum Humidity 93    
Minimum Humidity 64    
Precipitation  
Precipitation 0.07 in - - ()
Sea Level Pressure  
Sea Level Pressure 30.03 in    
Wind  
Wind Speed 3 mph (NW)    
Max Wind Speed 10 mph    
Max Gust Speed 16 mph    
Visibility 9 miles    
Events Snow    
Averages and records for this station are not official NWS values.
T = Trace of Precipitation, MM = Missing Value Source: NWS Daily Summary

Daily Weather History Graph

Daily Weather History Graph

Search for Another Location

Airport:

Trip Planner

Search our weather history database for the weather conditions in past years. The results will help you decide how hot, cold, wet, or windy it might be!

Date:

Astronomy

Oct. 23, 2013 Rise Set
Actual Time 7:41 AM CDT 6:12 PM CDT
Civil Twilight 7:10 AM CDT 6:43 PM CDT
Nautical Twilight 6:35 AM CDT 7:18 PM CDT
Astronomical Twilight 6:01 AM CDT 7:52 PM CDT
Moon 9:36 PM CDT (10/23) 12:06 PM CDT (10/23)
Length of Visible Light 11h 32m
Length of Day
10h 31m
Waning Gibbous, 79% of the Moon is Illuminated
Oct 23
Waning Gibbous
Oct 26
Last Quarter
Nov 3
New
Nov 9
First Quarter
Nov 17
Full

Hourly Weather History & Observations

Time (CDT) Temp. Windchill Dew Point Humidity Pressure Visibility Wind Dir Wind Speed Gust Speed Precip Events Conditions
12:14 AM 32.0 °F 28.7 °F 30.2 °F 93% 30.01 in 10.0 mi WSW 3.5 mph - N/A   Overcast
12:34 AM 32.0 °F 27.5 °F 30.2 °F 93% 30.01 in 10.0 mi WSW 4.6 mph - N/A   Overcast
12:54 AM 32.0 °F 28.7 °F 30.2 °F 93% 30.00 in 3.0 mi WSW 3.5 mph - N/A Snow Light Snow
1:13 AM 32.0 °F 27.5 °F 30.2 °F 93% 30.00 in 1.0 mi NNW 4.6 mph - 0.01 in Snow Snow
1:34 AM 32.0 °F - 30.2 °F 93% 30.00 in 2.5 mi Calm Calm - 0.03 in Snow Light Snow
1:54 AM 32.0 °F - 30.2 °F 93% 30.00 in 10.0 mi Calm Calm - 0.03 in   Overcast
2:14 AM 32.0 °F - 30.2 °F 93% 30.00 in 10.0 mi Calm Calm - N/A   Overcast
2:34 AM 32.0 °F - 30.2 °F 93% 30.00 in 10.0 mi Calm Calm - N/A   Overcast
2:54 AM 32.0 °F - 30.2 °F 93% 30.00 in 10.0 mi Calm Calm - N/A   Overcast
3:14 AM 32.0 °F - 30.2 °F 93% 29.99 in 10.0 mi Calm Calm - N/A   Overcast
3:34 AM 32.0 °F - 30.2 °F 93% 29.99 in 10.0 mi Calm Calm - N/A   Overcast
3:54 AM 32.0 °F - 30.2 °F 93% 29.99 in 10.0 mi Calm Calm - N/A   Overcast
4:14 AM 32.0 °F - 30.2 °F 93% 29.99 in 10.0 mi Calm Calm - N/A   Overcast
4:34 AM 32.0 °F - 30.2 °F 93% 29.98 in 10.0 mi Calm Calm - N/A   Overcast
4:54 AM 32.0 °F - 30.2 °F 93% 29.98 in 10.0 mi Calm Calm - N/A   Overcast
5:14 AM 32.0 °F - 30.2 °F 93% 29.99 in 10.0 mi Calm Calm - N/A   Overcast
5:34 AM 32.0 °F 28.7 °F 30.2 °F 93% 29.99 in 10.0 mi West 3.5 mph - N/A   Overcast
5:54 AM 32.0 °F - 30.2 °F 93% 29.99 in 10.0 mi Calm Calm - N/A   Overcast
6:14 AM 32.0 °F - 30.2 °F 93% 29.99 in 10.0 mi Calm Calm - N/A   Overcast
6:34 AM 32.0 °F 28.7 °F 30.2 °F 93% 29.99 in 10.0 mi West 3.5 mph - N/A   Overcast
6:54 AM 32.0 °F - 30.2 °F 93% 29.99 in 10.0 mi Calm Calm - N/A   Overcast
7:14 AM 32.0 °F - 30.2 °F 93% 29.99 in 10.0 mi Calm Calm - N/A   Overcast
7:34 AM 32.0 °F - 30.2 °F 93% 29.99 in 10.0 mi Calm Calm - N/A   Overcast
7:54 AM 32.0 °F - 30.2 °F 93% 29.99 in 10.0 mi Calm Calm - N/A   Overcast
8:14 AM 32.0 °F - 30.2 °F 93% 30.00 in 10.0 mi Calm Calm - N/A   Overcast
8:34 AM 32.0 °F - 30.2 °F 93% 30.00 in 10.0 mi Calm Calm - N/A   Overcast
8:54 AM 32.0 °F - 30.2 °F 93% 30.01 in 10.0 mi Calm Calm - N/A   Overcast
9:14 AM 32.0 °F - 30.2 °F 93% 30.01 in 10.0 mi Calm Calm - N/A   Overcast
9:34 AM 32.0 °F - 30.2 °F 93% 30.01 in 10.0 mi Calm Calm - N/A Snow Light Snow
9:54 AM 32.0 °F - 30.2 °F 93% 30.01 in 1.5 mi Calm Calm - N/A Snow Light Snow
10:14 AM 30.2 °F - 28.4 °F 93% 30.02 in 4.0 mi Calm Calm - 0.01 in Snow Light Snow
10:34 AM 30.2 °F - 28.4 °F 93% 30.02 in 5.0 mi Calm Calm - 0.01 in Snow Light Snow
10:54 AM 32.0 °F 25.6 °F 30.2 °F 93% 30.02 in 0.5 mi NNW 6.9 mph - 0.01 in Snow Snow
11:14 AM 32.0 °F 26.4 °F 30.2 °F 93% 30.03 in 10.0 mi NNW 5.8 mph - 0.02 in Snow Light Snow
11:34 AM 32.0 °F 25.6 °F 30.2 °F 93% 30.03 in 7.0 mi NW 6.9 mph - 0.03 in Snow Light Snow
11:54 AM 32.0 °F 26.4 °F 28.4 °F 87% 30.03 in 10.0 mi WNW 5.8 mph - 0.03 in   Overcast
12:14 PM 32.0 °F 28.7 °F 28.4 °F 87% 30.03 in 10.0 mi NW 3.5 mph - N/A   Overcast
12:33 PM 32.0 °F 26.4 °F 28.4 °F 87% 30.03 in 10.0 mi NW 5.8 mph - N/A   Overcast
12:54 PM 32.0 °F 26.4 °F 28.4 °F 87% 30.03 in 10.0 mi NNW 5.8 mph - N/A   Overcast
1:14 PM 32.0 °F 28.7 °F 26.6 °F 80% 30.02 in 10.0 mi NNW 3.5 mph - N/A   Overcast
1:34 PM 33.8 °F 27.0 °F 26.6 °F 75% 30.02 in 10.0 mi NNW 8.1 mph - N/A   Overcast
1:54 PM 33.8 °F 25.8 °F 26.6 °F 75% 30.02 in 10.0 mi NW 10.4 mph - N/A   Overcast
2:14 PM 33.8 °F 26.4 °F 26.6 °F 75% 30.02 in 10.0 mi NNW 9.2 mph 16.1 mph N/A   Overcast
2:34 PM 33.8 °F 25.8 °F 26.6 °F 75% 30.03 in 10.0 mi NW 10.4 mph - N/A   Overcast
2:54 PM 32.0 °F 24.2 °F 24.8 °F 75% 30.03 in 10.0 mi NW 9.2 mph - N/A   Overcast
3:14 PM 32.0 °F 24.8 °F 24.8 °F 75% 30.03 in 10.0 mi NW 8.1 mph - N/A   Overcast
3:34 PM 32.0 °F 24.2 °F 24.8 °F 75% 30.03 in 10.0 mi WNW 9.2 mph - N/A   Overcast
3:54 PM 32.0 °F 24.8 °F 24.8 °F 75% 30.04 in 10.0 mi NW 8.1 mph - N/A   Overcast
4:14 PM 32.0 °F 25.6 °F 24.8 °F 75% 30.05 in 10.0 mi NW 6.9 mph - N/A   Overcast
4:34 PM 32.0 °F 25.6 °F 23.0 °F 69% 30.05 in 10.0 mi WNW 6.9 mph - N/A   Overcast
4:53 PM 32.0 °F 24.8 °F 23.0 °F 69% 30.05 in 10.0 mi WNW 8.1 mph - N/A   Overcast
5:14 PM 32.0 °F 24.2 °F 21.2 °F 64% 30.05 in 10.0 mi WNW 9.2 mph - N/A   Overcast
5:34 PM 32.0 °F 25.6 °F 21.2 °F 64% 30.05 in 10.0 mi NW 6.9 mph - N/A   Overcast
5:54 PM 32.0 °F 25.6 °F 21.2 °F 64% 30.06 in 10.0 mi WNW 6.9 mph - N/A   Overcast
6:14 PM 32.0 °F 25.6 °F 21.2 °F 64% 30.07 in 10.0 mi WNW 6.9 mph - N/A   Overcast
6:34 PM 32.0 °F 25.6 °F 21.2 °F 64% 30.07 in 10.0 mi WNW 6.9 mph - N/A   Overcast
6:54 PM 32.0 °F 26.4 °F 21.2 °F 64% 30.07 in 10.0 mi WNW 5.8 mph - N/A   Overcast
7:14 PM 32.0 °F 26.4 °F 21.2 °F 64% 30.08 in 10.0 mi WNW 5.8 mph - N/A   Overcast
7:34 PM 32.0 °F 26.4 °F 21.2 °F 64% 30.08 in 10.0 mi WNW 5.8 mph - N/A   Overcast
7:54 PM 32.0 °F 27.5 °F 21.2 °F 64% 30.08 in 10.0 mi WNW 4.6 mph - N/A   Overcast
8:14 PM 32.0 °F 27.5 °F 21.2 °F 64% 30.08 in 10.0 mi WNW 4.6 mph - N/A   Overcast
8:34 PM 32.0 °F 27.5 °F 21.2 °F 64% 30.08 in 10.0 mi WNW 4.6 mph - N/A   Overcast
8:54 PM 32.0 °F 28.7 °F 21.2 °F 64% 30.08 in 10.0 mi NW 3.5 mph - N/A   Overcast
9:14 PM 32.0 °F 27.5 °F 23.0 °F 69% 30.08 in 10.0 mi NW 4.6 mph - N/A   Overcast
9:34 PM 32.0 °F 27.5 °F 23.0 °F 69% 30.09 in 10.0 mi NNW 4.6 mph - N/A   Overcast
9:54 PM 32.0 °F 26.4 °F 23.0 °F 69% 30.09 in 10.0 mi NW 5.8 mph - N/A   Overcast
10:14 PM 32.0 °F 27.5 °F 21.2 °F 64% 30.09 in 10.0 mi NNW 4.6 mph - N/A   Overcast
10:33 PM 32.0 °F 28.7 °F 23.0 °F 69% 30.09 in 10.0 mi NW 3.5 mph - N/A   Overcast
10:54 PM 32.0 °F 28.7 °F 23.0 °F 69% 30.09 in 10.0 mi WNW 3.5 mph - N/A   Overcast
11:14 PM 32.0 °F 28.7 °F 23.0 °F 69% 30.10 in 10.0 mi NW 3.5 mph - N/A   Overcast
11:34 PM 32.0 °F - 23.0 °F 69% 30.10 in 10.0 mi Calm Calm - N/A   Overcast
11:54 PM 32.0 °F 26.4 °F 23.0 °F 69% 30.10 in 10.0 mi WNW 5.8 mph - N/A   Overcast